Location: Rochester
(43.1610°N, 77.6109°W)
Time: 14:44:29
(UTC-04:00)

Tianhe-1 - Visible Passes

Search period start: 15 May 2021 00:00
Search period end: 25 May 2021 00:00
Orbit: 359 x 385 km, 41.5° (Epoch: 14 May)

Date Brightness Start Highest point End Pass type
(mag) Time Alt. Az. Time Alt. Az. Time Alt. Az.
15 May 1.5 21:57:29 10° SW 22:00:27 40° SSE 22:01:07 34° SE visible
16 May 1.2 22:30:09 10° WSW 22:32:57 56° SSW 22:32:57 56° SSW visible
17 May 1.3 21:26:38 10° WSW 21:29:40 49° SSE 21:32:32 11° E visible
17 May 2.8 23:03:01 10° W 23:04:31 25° WSW 23:04:31 25° WSW visible
18 May 1.0 21:59:24 10° W 22:02:30 64° S 22:03:55 29° ESE visible
19 May 1.3 22:32:16 10° W 22:35:11 53° SSW 22:35:11 53° SSW visible
20 May 1.1 21:28:39 10° W 21:31:44 63° S 21:34:26 13° ESE visible
20 May 3.3 23:05:16 10° W 23:06:23 18° WSW 23:06:23 18° WSW visible
21 May 1.5 22:01:33 10° W 22:04:32 44° SSW 22:05:35 31° SE visible
22 May 2.8 22:34:40 10° WSW 22:36:42 22° SW 22:36:42 22° SW visible
23 May 2.0 21:30:50 10° W 21:33:42 34° SSW 21:35:52 15° SE visible
24 May 3.1 22:04:14 10° WSW 22:06:16 16° SSW 22:07:00 15° S visible
